Location: Trout Lake
(45.9980°N, 121.5270°W)
Time: 18:36:49
(UTC-08:00)

Cosmos 1624 Rocket - Pass Details

Date: 06 December 2023
Orbit: 754 x 783 km, 74.0° (Epoch: 22 February)

Event Time Altitude Azimuth Distance (km) Brightness Sun altitude
Rises 17:51:50 0° 182° (S) 3,214 7.5 -15.1°
Reaches altitude 10° 17:54:17 10° 176° (S) 2,289 6.6 -15.5°
Maximum altitude 17:59:13 46° 104° (ESE) 1,020 4.3 -16.3°
Enters shadow 18:01:59 24° 45° (NE) 1,544 5.1 -16.8°
